Home > Weather > Davenport > Past weeks

Flag for USA Weather for the Past 2 Weeks in Davenport, Iowa, USA

Now
50 °F

Fog.


Feels Like: 47 °F
Forecast: 43 / 58 °F
Wind: 7 mph from East

Location: Davenport Municipal Airport

Current Time: Apr 28, 2016 at 11:04:30 PM

Latest Report: Apr 28, 2016 at 10:01 PM


Visibility: 3 mi

Pressure: 30.00 "Hg

Humidity: 93%

Dew Point: 48 °F

Location of DavenportLocation

Historic Weather in Davenport — Graph

°F

Davenport Temperature Yesterday

Maximum temperature yesterday: 49 °F (at 1:52 PM)
Minimum temperature yesterday: 44 °F (at 5:52 AM)
Average temperature yesterday: 47 °F

High & Low Weather Summary for the Past Weeks

 TemperatureHumidityPressure
High83 °F (Apr 16, 3:52 PM)100% (Apr 21, 3:52 AM)30.37 "Hg (Apr 21, 3:52 AM)
Low39 °F (Apr 14, 5:52 AM)18% (Apr 14, 4:52 PM)29.61 "Hg (Apr 25, 4:52 PM)
Average59 °F66%30.01 "Hg
* Reported Apr 13 8:52 PM — Apr 28 8:52 PM, Davenport, Weather by CustomWeather, © 2016

Note: Actual official high and low records may vary slightly from our data, if they occured in-between our weather recording intervals... More about our weather records

Advertising

Davenport Weather History for the Previous 24 Hours

Scroll right to see more
 ConditionsComfort  
Time TempWeatherWind HumidityBarometerVisibility
8:52 PM
Thu, Apr 28
50 °FFog.7 mph96%29.99 "Hg2 mi
7:52 PM51 °FFog.6 mph92%29.97 "Hg4 mi
6:52 PM53 °FFog.No wind86%29.95 "Hg6 mi
6:00 PM52 °FFog.No wind86%29.95 "Hg4 mi
4:52 PM54 °FMore clouds than sun.3 mph83%29.92 "Hg6 mi
4:01 PM52 °FFog.No wind86%29.90 "Hg4 mi
3:52 PM52 °FFog.No wind89%29.91 "Hg4 mi
2:52 PM51 °FLight rain. Fog.3 mph89%29.91 "Hg2 mi
1:52 PM50 °FFog.9 mph93%29.88 "Hg3 mi
12:52 PM51 °FFog.12 mph86%29.87 "Hg5 mi
11:52 AM50 °FFog.13 mph86%29.87 "Hg6 mi
10:52 AM49 °FFog.12 mph90%29.86 "Hg5 mi
9:52 AM49 °FFog.14 mph90%29.84 "Hg4 mi
8:52 AM47 °FFog.14 mph93%29.82 "Hg2 mi
7:52 AM47 °FFog.14 mph93%29.82 "Hg2 mi
6:52 AM50 °FFog.7 mph93%29.79 "Hg3 mi
5:52 AM49 °FFog.8 mph93%29.76 "Hg4 mi
4:52 AM49 °FFog.3 mph93%29.74 "Hg5 mi
3:58 AM49 °FFog.9 mph90%29.72 "Hg6 mi
2:52 AM48 °FFog.13 mph93%29.69 "Hg6 mi
1:52 AM47 °FFog.17 mph93%29.69 "Hg6 mi
12:52 AM48 °FLight rain. Fog.14 mph93%29.75 "Hg4 mi
11:59 PM
Wed, Apr 27
48 °FThunderstorms. Fog.9 mph93%29.80 "Hg3 mi
Weather by CustomWeather, © 2016

See weather overviewHow to use our weather pages